Trenton, NJ

8:31 AM EST on December 13, 2019 (GMT -0500)
Trenton Mercer

Weather History for KTTN - October, 2019

Change the Weather History Date:

Wednesday, October 16, 2019

  Actual Average Record
Temperature  
Mean Temperature 55 °F 54 °F  
Max Temperature 66 °F 65 °F 88 °F (1897)
Min Temperature 44 °F 44 °F 32 °F (2006)
Degree Days  
Heating Degree Days 10 11  
Month to date heating degree days 90 136  
Since 1 July heating degree days 108 201  
Cooling Degree Days 0 0  
Month to date cooling degree days 26 7  
Year to date cooling degree days 1163 962  
Growing Degree Days 5 (Base 50)    
Moisture  
Dew Point 55 °F    
Average Humidity 92    
Maximum Humidity 100    
Minimum Humidity 69    
Precipitation  
Precipitation 1.31 in 0.12 in 1.65 in (1974)
Month to date precipitation 2.21 2.24  
Year to date precipitation 40.87 37.49  
Sea Level Pressure  
Sea Level Pressure 29.56 in    
Wind  
Wind Speed 8 mph ()    
Max Wind Speed 29 mph    
Max Gust Speed 45 mph    
Visibility 5.4 miles    
Events Rain    
T = Trace of Precipitation, MM = Missing Value Source: Averaged Metar Reports

Daily Weather History Graph

Daily Weather History Graph

Search for Another Location

Airport or City:

Astronomy

Oct. 16, 2019 Rise Set
Actual Time 7:10 AM EDT 6:18 PM EDT
Civil Twilight 6:43 AM EDT 6:45 PM EDT
Nautical Twilight 6:11 AM EDT 7:17 PM EDT
Astronomical Twilight 5:40 AM EDT 7:48 PM EDT
Moon 8:09 PM EDT (10/16) 9:39 AM EDT (10/16)
Length of Visible Light 12h 02m
Length of Day
11h 07m
Waning Gibbous, 93% of the Moon is Illuminated
Oct 16
Waning Gibbous
Oct 21
Last Quarter
Oct 27
New
Nov 4
First Quarter
Nov 12
Full

Hourly Weather History & Observations

Time (EDT) Temp. Windchill Dew Point Humidity Pressure Visibility Wind Dir Wind Speed Gust Speed Precip Events Conditions
12:53 AM 48.0 °F - 45.0 °F 89% 30.04 in 10.0 mi Calm Calm - N/A   Clear
1:53 AM 46.0 °F 44.8 °F 43.0 °F 89% 30.03 in 10.0 mi ENE 3.5 mph - N/A   Clear
2:53 AM 45.0 °F - 44.1 °F 97% 30.01 in 10.0 mi Calm Calm - N/A   Clear
3:53 AM 45.0 °F 43.5 °F 43.0 °F 93% 29.98 in 10.0 mi NNE 3.5 mph - N/A   Clear
4:53 AM 46.0 °F 44.8 °F 45.0 °F 96% 29.96 in 10.0 mi NE 3.5 mph - N/A   Clear
5:53 AM 48.0 °F - 46.0 °F 93% 29.95 in 10.0 mi Calm Calm - N/A   Clear
6:53 AM 46.9 °F - 46.0 °F 97% 29.93 in 8.0 mi NNE 3.5 mph - N/A   Clear
7:29 AM 50.0 °F - 48.9 °F 96% 29.92 in 5.0 mi ENE 3.5 mph - N/A   Mostly Cloudy
7:53 AM 52.0 °F - 51.1 °F 97% 29.91 in 6.0 mi East 3.5 mph - N/A   Scattered Clouds
8:20 AM 53.1 °F - 52.0 °F 96% 29.90 in 6.0 mi East 4.6 mph - N/A   Mostly Cloudy
8:48 AM 55.4 °F - 55.4 °F 100% 29.92 in 7.0 mi SE 5.8 mph - N/A   Scattered Clouds
8:53 AM 55.0 °F - 55.0 °F 100% 29.90 in 8.0 mi SE 4.6 mph - N/A   Mostly Cloudy
9:53 AM 57.9 °F - 57.0 °F 97% 29.85 in 10.0 mi ESE 8.1 mph - N/A   Clear
10:53 AM 64.0 °F - 60.1 °F 87% 29.80 in 10.0 mi SSE 10.4 mph - N/A   Partly Cloudy
11:53 AM 64.9 °F - 59.0 °F 81% 29.75 in 10.0 mi SE 15.0 mph - N/A   Mostly Cloudy
12:45 PM 66.0 °F - 59.0 °F 78% 29.71 in 10.0 mi SE 16.1 mph - N/A   Mostly Cloudy
12:53 PM 66.0 °F - 59.0 °F 78% 29.69 in 10.0 mi SE 12.7 mph - N/A   Overcast
1:48 PM 64.4 °F - 60.8 °F 88% 29.66 in 7.0 mi SE 12.7 mph 21.9 mph 0.01 in Rain Rain
1:53 PM 64.9 °F - 61.0 °F 87% 29.65 in 6.0 mi SE 10.4 mph 21.9 mph 0.02 in Rain Light Rain
2:53 PM 64.0 °F - 62.1 °F 93% 29.60 in 6.0 mi ESE 9.2 mph - 0.04 in Rain Light Rain
3:08 PM 64.0 °F - 62.1 °F 93% 29.60 in 2.0 mi ESE 8.1 mph 21.9 mph 0.05 in Rain Rain
3:12 PM 64.0 °F - 61.0 °F 90% 29.60 in 2.5 mi ESE 6.9 mph - 0.06 in Rain Rain
3:53 PM 64.0 °F - 62.1 °F 93% 29.55 in 4.0 mi ESE 10.4 mph - 0.14 in Rain Rain
4:16 PM 63.0 °F - 62.1 °F 97% 29.54 in 2.5 mi SE 11.5 mph - 0.06 in Rain Heavy Rain
4:22 PM 63.0 °F - 60.1 °F 90% 29.54 in 1.8 mi SE 18.4 mph 24.2 mph 0.09 in Rain Heavy Rain
4:30 PM 62.1 °F - 57.0 °F 84% 29.52 in 2.5 mi SE 12.7 mph - 0.12 in Rain Rain
4:40 PM 60.1 °F - 57.0 °F 90% 29.51 in 1.5 mi SE 6.9 mph - 0.19 in Rain Heavy Rain
4:53 PM 60.1 °F - 57.0 °F 90% 29.47 in 1.5 mi ESE 10.4 mph - 0.30 in Rain Heavy Rain
5:00 PM 60.1 °F - 57.9 °F 93% 29.48 in 2.0 mi SE 8.1 mph - 0.04 in Rain Heavy Rain
5:02 PM 60.1 °F - 57.9 °F 93% 29.48 in 1.8 mi ESE 11.5 mph 18.4 mph 0.05 in Rain Heavy Rain
5:31 PM 61.0 °F - 59.0 °F 93% 29.43 in 2.0 mi ESE 16.1 mph - 0.25 in Rain Heavy Rain
5:45 PM 61.0 °F - 59.0 °F 93% 29.41 in 3.0 mi ESE 15.0 mph 21.9 mph 0.32 in Rain Heavy Rain
5:53 PM 60.1 °F - 59.0 °F 96% 29.40 in 3.0 mi East 15.0 mph 27.6 mph 0.35 in Rain Heavy Rain
6:10 PM 59.0 °F - 57.0 °F 93% 29.38 in 2.5 mi East 13.8 mph 21.9 mph 0.11 in Rain Heavy Rain
6:27 PM 57.9 °F - 55.9 °F 93% 29.36 in 3.0 mi East 15.0 mph 20.7 mph 0.17 in Rain Rain
6:42 PM 57.9 °F - 57.0 °F 97% 29.33 in 2.5 mi East 11.5 mph 25.3 mph 0.24 in Rain Heavy Rain
6:45 PM 57.9 °F - 57.0 °F 97% 29.33 in 3.0 mi East 12.7 mph 21.9 mph 0.25 in Rain Rain
6:47 PM 57.2 °F - 57.2 °F 100% 29.33 in 3.0 mi East 15.0 mph 20.7 mph 0.26 in Rain Heavy Rain
6:50 PM 57.2 °F - 57.2 °F 100% 29.32 in 2.5 mi East 13.8 mph 19.6 mph 0.26 in Rain Rain
6:53 PM 57.9 °F - 57.0 °F 97% 29.30 in 2.5 mi East 17.3 mph - 0.27 in Rain Rain
7:08 PM 57.9 °F - 57.0 °F 97% 29.31 in 1.5 mi ESE 12.7 mph 20.7 mph 0.10 in Rain Heavy Rain
7:20 PM 59.0 °F - 57.9 °F 96% 29.30 in 3.0 mi ESE 9.2 mph - 0.13 in Rain Rain
7:29 PM 59.0 °F - 57.9 °F 96% 29.29 in 4.0 mi SE 13.8 mph 20.7 mph 0.14 in Rain Light Rain
7:36 PM 59.0 °F - 57.9 °F 96% 29.29 in 3.0 mi SE 12.7 mph 19.6 mph 0.14 in Rain Light Rain
7:53 PM 57.9 °F - 57.0 °F 97% 29.26 in 3.0 mi SE 6.9 mph - 0.15 in Rain Light Rain
8:17 PM 59.0 °F - 57.0 °F 93% 29.27 in 3.0 mi West 11.5 mph - 0.02 in Rain Light Rain
8:36 PM 57.9 °F - 57.0 °F 97% 29.27 in 4.0 mi West 11.5 mph - 0.03 in Rain Light Rain
8:48 PM 57.2 °F - 55.4 °F 94% 29.27 in 2.5 mi WNW 21.9 mph 32.2 mph 0.04 in Rain Light Rain
8:53 PM 55.0 °F - 53.1 °F 93% 29.26 in 4.0 mi WNW 23.0 mph 38.0 mph 0.04 in Rain Light Rain
8:58 PM 54.0 °F - 51.1 °F 90% 29.29 in 8.0 mi WNW 24.2 mph 38.0 mph 0.00 in Rain Light Rain
9:12 PM 54.0 °F - 50.0 °F 86% 29.30 in 10.0 mi WNW 17.3 mph 39.1 mph 0.00 in   Overcast
9:53 PM 53.1 °F - 46.9 °F 80% 29.30 in 10.0 mi WNW 19.6 mph 44.9 mph 0.00 in   Overcast
10:53 PM 53.1 °F - 45.0 °F 74% 29.31 in 10.0 mi West 15.0 mph 29.9 mph N/A   Mostly Cloudy
11:53 PM 52.0 °F - 42.1 °F 69% 29.32 in 10.0 mi WNW 18.4 mph 40.3 mph N/A   Mostly Cloudy